Date String (YYYY-MM-DD hh:mm:ss) UTC,Instrument flags,Ambient pressure (hPa),Sample flow (lpm),Bypass flow (lpm),Sample temperature (°C),Ambient temperature (°C),ASC tube jacket temperature (°C),LED temperature (°C),Box temperature (°C),Sample RH (%),Span deviation,Mass concentration (μg/m³),Mass concentration (μg/m³),Mass concentration (μg/m³)
DateTimeUTC,F1_M11,P_M11,Q1_M11,Q2_M11,T1_M11,T2_M11,T3_M11,T4_M11,T5_M11,U1_M11,ZSPAN_M11,X0_M11,X2_M11,X1_M11
2022-09-22 22:00:00,,0826.9,4.99,0.00,29.9,28.6,00.0,38.6,31.8,27.0,-003.1,0011.01,0007.97,0007.70
2022-09-22 22:01:00,,0826.9,5.01,0.00,30.0,28.6,00.0,38.7,31.9,26.8,-003.0,0011.08,0008.01,0007.73
2022-09-22 22:02:00,,0827.0,5.01,0.00,30.0,28.6,00.0,38.7,31.9,26.8,-002.8,0011.17,0008.05,0007.75
2022-09-22 22:03:00,,0827.0,4.99,0.00,30.0,28.6,00.0,38.7,31.8,26.8,-002.8,0011.09,0008.04,0007.75
2022-09-22 22:04:00,,0827.0,5.01,0.00,30.0,28.6,00.0,38.7,31.9,26.7,-002.9,0011.14,0008.08,0007.77
2022-09-22 22:05:00,,0827.0,4.99,0.00,30.0,28.6,00.0,38.7,31.9,26.6,-002.7,0011.26,0008.11,0007.79
2022-09-22 22:06:00,,0826.9,4.99,0.00,30.0,28.7,00.0,38.7,31.9,26.7,-002.7,0011.32,0008.13,0007.82
2022-09-22 22:07:00,,0827.1,5.00,0.00,30.0,28.7,00.0,38.7,31.9,26.7,-002.7,0011.09,0008.14,0007.84
2022-09-22 22:08:00,,0827.0,4.99,0.00,30.0,28.7,00.0,38.7,31.9,26.7,-002.8,0010.92,0008.15,0007.86
2022-09-22 22:09:00,,0827.0,5.01,0.00,30.0,28.7,00.0,38.7,31.9,26.7,-002.7,0010.99,0008.15,0007.87
2022-09-22 22:10:00,,0827.0,4.99,0.00,30.0,28.7,00.0,38.7,31.9,26.9,-002.7,0010.97,0008.14,0007.87
2022-09-22 22:11:00,,0826.9,5.00,0.00,30.0,28.7,00.0,38.7,31.9,26.9,-002.7,0010.93,0008.12,0007.86
2022-09-22 22:12:00,,0827.0,4.99,0.00,30.0,28.7,00.0,38.7,31.9,26.9,-002.6,0010.84,0008.08,0007.84
2022-09-22 22:13:00,,0827.2,5.00,0.00,30.0,28.7,00.0,38.7,31.9,27.0,-002.8,0010.74,0008.02,0007.80
2022-09-22 22:14:00,,0827.0,5.01,0.00,30.1,28.7,00.0,38.7,31.9,27.0,-002.7,0010.68,0007.97,0007.76
2022-09-22 22:15:00,,0826.9,5.01,0.00,30.1,28.7,00.0,38.7,31.9,26.7,-002.7,0010.69,0007.97,0007.76
2022-09-22 22:16:00,,0826.9,4.99,0.00,30.1,28.7,00.0,38.8,31.9,26.6,-002.8,0010.66,0007.99,0007.75
2022-09-22 22:17:00,,0827.0,5.00,0.00,30.1,28.7,00.0,38.8,32.0,26.7,-002.8,0010.67,0007.99,0007.73
2022-09-22 22:18:00,,0826.8,5.00,0.00,30.1,28.7,00.0,38.8,31.9,26.7,-002.8,0010.70,0007.99,0007.71
2022-09-22 22:19:00,,0826.8,4.99,0.00,30.1,28.6,00.0,38.8,31.9,26.7,-002.8,0010.72,0007.99,0007.71
2022-09-22 22:20:00,,0826.8,5.01,0.00,30.1,28.6,00.0,38.8,31.9,26.6,-002.8,0010.97,0008.01,0007.71
2022-09-22 22:21:00,,0826.8,5.01,0.00,30.1,28.6,00.0,38.8,31.9,26.7,-003.0,0011.00,0008.02,0007.72
2022-09-22 22:22:00,,0826.9,4.99,0.00,30.1,28.6,00.0,38.8,31.9,26.8,-002.8,0011.07,0008.06,0007.74
2022-09-22 22:23:00,,0827.0,5.01,0.00,30.1,28.6,00.0,38.8,31.9,26.8,-002.8,0011.13,0008.09,0007.74
2022-09-22 22:24:00,,0826.9,4.99,0.00,30.1,28.6,00.0,38.8,31.9,26.8,-002.7,0011.15,0008.11,0007.76
2022-09-22 22:25:00,,0827.0,5.01,0.00,30.0,28.6,00.0,38.8,31.9,26.9,-002.6,0011.12,0008.11,0007.77
2022-09-22 22:26:00,,0826.8,5.01,0.00,30.0,28.6,00.0,38.8,31.9,27.1,-002.6,0011.08,0008.09,0007.76
2022-09-22 22:27:00,,0826.7,5.00,0.00,30.1,28.6,00.0,38.8,31.9,27.1,-002.3,0010.99,0008.05,0007.75
2022-09-22 22:28:00,,0826.7,5.00,0.00,30.0,28.7,00.0,38.8,31.9,27.1,-002.0,0010.95,0008.05,0007.74
2022-09-22 22:29:00,,0826.7,5.01,0.00,30.1,28.6,00.0,38.8,31.9,26.9,-002.1,0010.97,0008.07,0007.76
2022-09-22 22:30:00,,0826.7,4.99,0.00,30.1,28.7,00.0,38.8,31.9,26.9,-001.8,0010.94,0008.07,0007.77
2022-09-22 22:31:00,,0826.7,4.99,0.00,30.1,28.7,00.0,38.8,31.9,26.9,-001.8,0010.68,0008.07,0007.76
2022-09-22 22:32:00,,0826.7,5.01,0.00,30.1,28.7,00.0,38.8,31.9,26.9,-001.4,0010.64,0008.09,0007.77
2022-09-22 22:33:00,,0826.7,4.99,0.00,30.1,28.7,00.0,38.8,32.0,26.9,-001.1,0010.69,0008.11,0007.78
2022-09-22 22:34:00,,0826.8,5.01,0.00,30.1,28.7,00.0,38.8,32.0,26.7,-001.2,0010.70,0008.13,0007.82
2022-09-22 22:35:00,,0826.8,5.00,0.00,30.1,28.7,00.0,38.8,32.0,26.9,-001.3,0010.97,0008.15,0007.85
2022-09-22 22:36:00,,0826.7,5.01,0.00,30.1,28.7,00.0,38.8,32.0,26.9,-000.9,0011.29,0008.20,0007.88
2022-09-22 22:37:00,,0826.7,5.01,0.00,30.1,28.7,00.0,38.8,32.0,26.7,-000.8,0011.88,0008.23,0007.91
2022-09-22 22:38:00,,0826.7,4.98,0.00,30.1,28.7,00.0,38.8,32.0,26.6,-001.2,0011.92,0008.23,0007.90
2022-09-22 22:39:00,,0826.7,5.01,0.00,30.1,28.7,00.0,38.8,32.0,26.7,-001.5,0011.98,0008.24,0007.89
2022-09-22 22:40:00,,0826.8,5.00,0.00,30.1,28.7,00.0,38.9,32.0,26.5,-001.7,0012.05,0008.27,0007.92
2022-09-22 22:41:00,,0826.7,5.00,0.00,30.1,28.7,00.0,38.9,32.0,26.6,-002.0,0012.16,0008.32,0007.94
2022-09-22 22:42:00,,0826.6,5.00,0.00,30.1,28.7,00.0,38.9,32.0,26.6,-002.4,0012.26,0008.35,0007.96
2022-09-22 22:43:00,,0826.7,5.02,0.00,30.1,28.7,00.0,38.9,32.0,26.6,-002.2,0012.27,0008.35,0007.96
2022-09-22 22:44:00,,0826.7,5.01,0.00,30.1,28.7,00.0,38.9,32.0,26.7,-002.0,0012.23,0008.33,0007.97
2022-09-22 22:45:00,,0826.7,4.99,0.00,30.1,28.7,00.0,38.9,32.0,26.7,-001.9,0012.26,0008.34,0007.97
2022-09-22 22:46:00,,0826.8,5.01,0.00,30.1,28.7,00.0,38.9,32.0,26.6,-001.8,0011.99,0008.35,0007.98
2022-09-22 22:47:00,,0826.8,5.00,0.00,30.2,28.8,00.0,38.9,32.0,26.6,-002.0,0011.73,0008.33,0007.98
2022-09-22 22:48:00,,0826.8,4.99,0.00,30.2,28.8,00.0,38.9,32.0,26.7,-002.3,0011.37,0008.34,0007.98
2022-09-22 22:49:00,,0826.7,5.01,0.00,30.2,28.8,00.0,38.9,32.0,26.7,-002.3,0011.64,0008.37,0008.02
2022-09-22 22:50:00,,0826.7,5.01,0.00,30.2,28.8,00.0,38.9,32.0,26.7,-002.1,0011.61,0008.40,0008.05
2022-09-22 22:51:00,,0826.8,4.99,0.00,30.2,28.7,00.0,38.9,32.0,26.7,-001.9,0011.58,0008.37,0008.03
2022-09-22 22:52:00,,0826.7,4.99,0.00,30.2,28.8,00.0,38.9,32.0,26.7,-001.6,0011.57,0008.38,0008.04
2022-09-22 22:53:00,,0826.7,5.00,0.00,30.2,28.8,00.0,38.9,32.0,26.7,-001.2,0011.54,0008.40,0008.06
2022-09-22 22:54:00,,0826.7,5.00,0.00,30.2,28.8,00.0,38.9,32.0,26.6,-001.7,0011.52,0008.42,0008.08
2022-09-22 22:55:00,,0826.7,5.00,0.00,30.2,28.7,00.0,38.9,32.0,26.7,-002.1,0011.56,0008.46,0008.11
2022-09-22 22:56:00,,0826.8,5.01,0.00,30.2,28.8,00.0,38.9,32.0,26.7,-002.3,0011.66,0008.48,0008.12
2022-09-22 22:57:00,,0826.9,4.99,0.00,30.2,28.8,00.0,38.9,32.0,26.9,-002.4,0011.65,0008.48,0008.11
2022-09-22 22:58:00,,0826.9,4.98,0.00,30.2,28.8,00.0,38.9,32.0,27.3,-002.6,0011.71,0008.52,0008.13
2022-09-22 22:59:00,,0826.9,5.00,0.00,30.2,28.8,00.0,38.9,32.1,27.0,-002.6,0011.60,0008.55,0008.17
